Wetterdaten am Flugplatz MSG Übersee

alte Datensätze gelöscht
62 aktuelle Wetterdateneinträge gefunden

Datum/Uhrzeit   Windrichtung/Grad    Geschw./kmh    Temp./C°    Luftdruck/mbar    Spannung/Volt   
2026-09-04 00:04 W/271 6 22 1026 12,24
2026-09-04 00:14 W/277 6 22 1026 12,26
2026-09-04 00:24 W/269 7 22 1026 12,29
2026-09-04 00:35 W/256 7 22 1026 12,32
2026-09-04 00:45 W/257 7 22 1026 12,33
2026-09-04 00:55 W/253 7 22 1026 12,36
2026-09-04 01:05 SW/246 7 22 1026 12,38
2026-09-04 01:15 SW/247 6 22 1026 11,99
2026-09-04 01:25 SW/247 7 22 1026 12,18
2026-09-04 01:35 SW/244 10 22 1026 12,23
2026-09-04 01:45 W/249 7 22 1025 12,26
2026-09-04 01:55 W/250 7 22 1026 12,29
2026-09-04 02:05 SW/238 12 22 1025 12,30
2026-09-04 02:15 SW/237 12 22 1025 12,32
2026-09-04 02:25 SW/235 10 22 1025 12,35
2026-09-04 02:35 SW/236 7 22 1025 12,36
2026-09-04 02:45 SW/232 6 22 1025 11,98
2026-09-04 02:55 SW/231 6 22 1025 12,16
2026-09-04 03:05 SW/230 6 22 1025 12,18
2026-09-04 03:16 SW/230 5 22 1025 12,21
2026-09-04 03:26 SW/230 7 22 1025 12,23
2026-09-04 03:36 SW/230 7 22 1025 12,27
2026-09-04 03:46 SW/230 6 22 1025 12,29
2026-09-04 03:56 SW/230 6 22 1025 12,30
2026-09-04 04:06 SW/230 6 22 1025 11,95
2026-09-04 04:16 SW/230 9 21 1025 12,13
2026-09-04 04:26 SW/225 9 21 1025 12,17
2026-09-04 04:36 SW/223 10 21 1025 12,20
2026-09-04 04:46 SW/222 7 21 1025 12,21
2026-09-04 04:56 SW/221 6 21 1024 12,24
2026-09-04 05:06 SW/221 7 21 1024 12,26
2026-09-04 05:16 SW/221 7 21 1024 12,29
2026-09-04 05:26 SW/221 8 21 1024 11,91
2026-09-04 05:36 SW/221 11 21 1025 12,11
2026-09-04 05:46 SW/220 9 21 1024 12,14
2026-09-04 05:57 SW/220 9 21 1024 12,17
2026-09-04 06:07 SW/213 12 21 1024 12,21
2026-09-04 06:17 SW/210 14 20 1024 12,23
2026-09-04 06:27 SW/217 12 20 1024 12,24
2026-09-04 06:37 SW/215 12 20 1024 11,86
2026-09-04 06:47 SW/218 12 20 1024 12,10
2026-09-04 06:57 SW/217 13 20 1024 12,13
2026-09-04 07:07 SW/225 13 20 1024 12,16
2026-09-04 07:17 SW/217 16 20 1024 12,18
2026-09-04 07:27 SW/212 19 20 1024 12,23
2026-09-04 07:37 SW/219 15 20 1024 12,23
2026-09-04 07:47 SW/221 16 21 1024 11,85
2026-09-04 07:57 SW/230 11 21 1024 12,11
2026-09-04 08:07 SW/239 4 21 1024 12,16
2026-09-04 08:17 SW/245 1 21 1025 12,20
2026-09-04 08:28 SW/235 3 21 1024 12,24
2026-09-04 08:38 SW/217 12 22 1024 12,30
2026-09-04 08:48 SW/214 13 22 1024 12,35
2026-09-04 08:58 SW/203 20 23 1024 12,40
2026-09-04 09:08 SW/208 17 24 1024 12,07
2026-09-04 09:18 SW/216 13 24 1024 12,27
2026-09-04 09:28 SW/218 9 25 1024 12,35
2026-09-04 09:38 SW/231 9 26 1024 12,48
2026-09-04 09:48 W/279 4 27 1024 12,57
2026-09-04 09:58 W/270 7 27 1024 12,62
2026-09-04 10:08 W/288 7 28 1024 12,54
2026-09-04 10:18 NW/294 6 29 1024 12,54